FW6490 Weather Reports


time (UTC)temp
C
wind
direction
speed
KPH
gust
KPH
rain 1hr
cm
rain 24hr
cm
rain mn
cm
humidity
%
barometer
mb
20260503225543 19 334 6.4 16.1 0.00 0.00 0.00 53 1007.8
20260503224536 19 268 8.0 19.3 0.00 0.00 0.00 53 1007.8
20260503224035 19 327 6.4 19.3 0.00 0.00 0.00 53 1007.9
20260503223535 19 346 6.4 14.5 0.00 0.00 0.00 53 1007.9
20260503223035 19 325 6.4 14.5 0.00 0.00 0.00 52 1007.9
20260503222535 19 329 6.4 14.5 0.00 0.00 0.00 52 1008.0
20260503222030 19 300 6.4 17.7 0.00 0.00 0.00 54 1008.0
20260503221535 19 329 6.4 17.7 0.00 0.00 0.00 53 1008.0
20260503221034 20 13 6.4 14.5 0.00 0.00 0.00 52 1008.1
20260503220531 20 322 6.4 12.9 0.00 0.00 0.00 52 1008.1
20260503220030 19 342 4.8 12.9 0.00 0.00 0.00 54 1008.1
20260503215522 18 324 4.8 12.9 0.00 0.00 0.00 54 1008.1
20260503214523 18 317 6.4 17.7 0.00 0.00 0.00 56 1008.1
20260503214022 18 342 8.0 17.7 0.00 0.00 0.00 56 1008.1
20260503213519 18 313 6.4 14.5 0.00 0.00 0.00 55 1008.1
20260503213018 18 329 6.4 14.5 0.00 0.00 0.00 56 1008.1
20260503212016 18 355 6.4 14.5 0.00 0.00 0.00 56 1008.1
20260503211011 18 28 4.8 16.1 0.00 0.00 0.00 58 1008.1
20260503210512 18 33 4.8 12.9 0.00 0.00 0.00 58 1008.1
20260503210011 18 17 4.8 12.9 0.00 0.00 0.00 59 1008.1
20260503205508 18 275 6.4 12.9 0.00 0.00 0.00 58 1008.3
20260503204504 18 309 6.4 11.3 0.00 0.00 0.00 57 1008.3
20260503203456 18 327 6.4 17.7 0.00 0.00 0.00 58 1008.5
20260503202957 18 317 6.4 17.7 0.00 0.00 0.00 57 1008.5
20260503202456 18 330 4.8 11.3 0.00 0.00 0.00 59 1008.6
20260503201958 18 313 6.4 14.5 0.00 0.00 0.00 59 1008.6
20260503201459 18 311 6.4 14.5 0.00 0.00 0.00 59 1008.6
20260503200955 18 44 6.4 12.9 0.00 0.00 0.00 58 1008.5
20260503200452 19 327 4.8 11.3 0.00 0.00 0.00 57 1008.5
20260503195952 19 327 4.8 12.9 0.00 0.00 0.00 55 1008.5
20260503194951 19 330 4.8 12.9 0.00 0.00 0.00 56 1008.6
20260503194449 19 315 8.0 12.9 0.00 0.00 0.00 54 1008.6
20260503193944 19 259 6.4 14.5 0.00 0.00 0.00 54 1008.6
20260503193442 20 318 4.8 14.5 0.00 0.00 0.00 54 1008.6
20260503192946 20 329 4.8 11.3 0.00 0.00 0.00 55 1008.6
20260503192438 19 345 4.8 9.7 0.00 0.00 0.00 56 1008.9
20260503191937 18 38 4.8 12.9 0.00 0.00 0.00 57 1008.9
20260503191433 18 337 4.8 12.9 0.00 0.00 0.00 59 1008.9
20260503190929 18 333 4.8 14.5 0.00 0.00 0.00 59 1008.9
20260503190427 18 5 6.4 14.5 0.00 0.00 0.00 59 1008.9
20260503185925 18 322 6.4 12.9 0.00 0.00 0.00 57 1008.9
20260503185425 19 327 4.8 11.3 0.00 0.00 0.00 57 1008.9
20260503184919 19 339 4.8 14.5 0.00 0.00 0.00 56 1008.9
20260503184419 19 10 4.8 14.5 0.00 0.00 0.00 57 1008.9
20260503183922 18 17 4.8 9.7 0.00 0.00 0.00 58 1009.1
20260503183420 18 321 4.8 9.7 0.00 0.00 0.00 58 1009.1
20260503182913 18 257 4.8 9.7 0.00 0.00 0.00 59 1009.1
20260503182410 18 280 3.2 9.7 0.00 0.00 0.00 61 1009.2
20260503181910 18 290 3.2 9.7 0.00 0.00 0.00 63 1009.2
20260503181409 18 290 3.2 9.7 0.00 0.00 0.00 62 1009.2
20260503180909 18 289 3.2 9.7 0.00 0.00 0.00 64 1009.2
20260503175908 17 279 3.2 11.3 0.00 0.00 0.00 68 1009.1
20260503175408 17 313 3.2 9.7 0.00 0.00 0.00 67 1009.1
20260503174907 17 313 3.2 9.7 0.00 0.00 0.00 65 1009.1
20260503174410 17 289 3.2 8.0 0.00 0.00 0.00 68 1009.1
20260503173901 17 288 3.2 11.3 0.00 0.00 0.00 67 1009.1
20260503173401 17 355 4.8 11.3 0.00 0.00 0.00 70 1009.1
20260503172857 16 54 4.8 12.9 0.00 0.00 0.00 73 1009.1
20260503172357 16 338 4.8 12.9 0.00 0.00 0.00 73 1009.1
20260503171857 16 325 4.8 9.7 0.00 0.00 0.00 74 1009.1
20260503171356 16 327 4.8 11.3 0.00 0.00 0.00 76 1009.0
20260503170356 15 320 3.2 9.7 0.00 0.00 0.00 80 1009.0
20260503150328 13 61 1.6 4.8 0.00 0.00 0.00 85 1008.3
20260503131251 11 293 0.0 1.6 0.00 0.00 0.00 86 1007.3
20260503120221 12 293 0.0 1.6 0.00 0.00 0.00 84 1006.8
20260503110657 12 293 1.6 4.8 0.00 0.00 0.00 82 1006.9
20260503090126 12 294 0.0 0.0 0.00 0.00 0.00 84 1007.0
20260503081111 13 294 0.0 0.0 0.00 0.00 0.00 84 1007.7
20260503080609 13 294 0.0 0.0 0.00 0.00 0.00 84 1007.7
20260503080105 13 294 0.0 1.6 0.00 0.00 0.00 84 1007.7
20260503072548 12 294 1.6 8.0 0.00 0.00 0.00 85 1007.5
20260503072047 12 294 1.6 8.0 0.00 0.00 0.00 86 1007.5
20260503071545 12 294 1.6 4.8 0.00 0.00 0.00 86 1007.5
20260503071045 12 294 1.6 4.8 0.00 0.00 0.00 86 1007.4
20260503070542 12 294 1.6 4.8 0.00 0.00 0.00 86 1007.4
20260503055022 13 294 1.6 6.4 0.00 0.00 0.00 86 1007.0
20260503054515 13 294 1.6 8.0 0.00 0.00 0.00 87 1007.0
20260503054016 13 294 3.2 8.0 0.00 0.00 0.00 87 1007.0
20260503053514 13 257 3.2 6.4 0.00 0.00 0.00 87 1007.0
20260503053015 13 257 3.2 9.7 0.00 0.00 0.00 87 1007.0
20260503052010 12 276 3.2 9.7 0.00 0.00 0.00 87 1006.9
20260503051009 12 274 3.2 4.8 0.00 0.00 0.00 87 1006.9
20260503050007 12 274 0.0 4.8 0.00 0.00 0.00 87 1006.9
20260503045507 12 274 0.0 4.8 0.00 0.00 0.00 87 1006.8
20260503045003 12 274 1.6 4.8 0.00 0.00 0.00 87 1006.8
20260503044457 12 274 1.6 4.8 0.00 0.00 0.00 87 1006.9
20260503043956 12 274 1.6 4.8 0.00 0.00 0.00 87 1006.8
20260503042950 12 274 0.0 3.2 0.00 0.00 0.00 87 1006.8
20260503042449 12 274 0.0 3.2 0.00 0.00 0.00 87 1006.7
20260503041948 12 274 0.0 8.0 0.00 0.00 0.00 87 1006.7
20260503041445 12 274 1.6 8.0 0.00 0.00 0.00 87 1006.7
20260503040941 12 271 1.6 6.4 0.00 0.00 0.00 87 1006.6
20260503040441 12 271 1.6 6.4 0.00 0.00 0.00 87 1006.6
20260503035936 13 271 1.6 4.8 0.00 0.00 0.00 86 1006.6
20260503034935 13 271 0.0 4.8 0.00 0.00 0.00 87 1006.5
20260503034436 13 271 0.0 4.8 0.00 0.00 0.00 87 1006.5
20260503033428 13 271 0.0 3.2 0.00 0.00 0.00 87 1006.5
20260503032426 12 271 0.0 3.2 0.00 0.00 0.00 86 1006.4
20260503031423 12 271 1.6 8.0 0.00 0.00 0.00 85 1006.4
20260503030922 13 271 1.6 8.0 0.00 0.00 0.00 85 1006.3
20260503030416 13 271 1.6 6.4 0.00 0.00 0.00 84 1006.3
20260503025415 13 271 3.2 11.3 0.00 0.00 0.00 83 1006.1
20260503024914 13 271 4.8 11.3 0.00 0.00 0.00 83 1006.1
20260503024410 13 279 4.8 11.3 0.00 0.00 0.00 81 1006.1
20260503023912 13 312 3.2 11.3 0.00 0.00 0.00 80 1005.9
20260503023408 14 317 3.2 8.0 0.00 0.00 0.00 80 1005.9
20260503022913 14 316 3.2 9.7 0.00 0.00 0.00 79 1005.9
20260503022409 15 316 3.2 9.7 0.00 0.00 0.00 78 1006.0
20260503021906 15 316 3.2 9.7 0.00 0.00 0.00 78 1006.0
20260503021405 15 315 3.2 8.0 0.00 0.00 0.00 77 1006.0
20260503020901 15 315 4.8 11.3 0.00 0.00 0.00 76 1006.0
20260503020359 15 312 4.8 11.3 0.00 0.00 0.00 75 1006.0
20260503015856 16 296 4.8 11.3 0.00 0.00 0.00 74 1005.9
20260503015355 16 322 4.8 12.9 0.00 0.00 0.00 73 1005.9
20260503014852 16 313 6.4 12.9 0.00 0.00 0.00 72 1005.9
20260503013848 16 332 4.8 12.9 0.00 0.00 0.00 71 1006.0
20260503012842 16 298 4.8 14.5 0.00 0.00 0.00 71 1006.1
20260503012338 17 287 4.8 11.3 0.00 0.00 0.00 70 1006.1
20260503011838 17 278 4.8 11.3 0.00 0.00 0.00 70 1006.1
20260503011333 18 277 4.8 9.7 0.00 0.00 0.00 68 1006.1
20260503010829 18 314 4.8 12.9 0.00 0.00 0.00 68 1006.1
20260503005824 18 295 4.8 12.9 0.00 0.00 0.00 66 1006.1
20260503005320 18 319 4.8 12.9 0.00 0.00 0.00 65 1006.1
20260503004821 18 321 4.8 12.9 0.00 0.00 0.00 65 1006.1
20260503004322 19 350 4.8 12.9 0.00 0.00 0.00 65 1006.2
20260503003820 19 329 4.8 11.3 0.00 0.00 0.00 66 1006.2
20260503001813 20 343 4.8 12.9 0.00 0.00 0.00 63 1006.2
20260503001309 20 327 4.8 11.3 0.00 0.00 0.00 63 1006.1
20260503000812 20 355 4.8 9.7 0.00 0.00 0.00 64 1006.1
20260503000307 20 339 4.8 9.7 0.00 0.00 0.00 64 1006.1
20260502235804 20 330 4.8 9.7 0.00 0.00 0.00 65 1006.2
20260502235259 20 284 4.8 11.3 0.00 0.00 0.00 65 1006.2
20260502234801 20 288 4.8 11.3 0.00 0.00 0.00 63 1006.2
20260502234259 20 22 4.8 11.3 0.00 0.00 0.00 63 1006.4
20260502233256 20 338 4.8 12.9 0.00 0.00 0.00 63 1006.4
20260502232757 20 317 4.8 9.7 0.00 0.00 0.00 63 1006.5
20260502232255 20 355 4.8 12.9 0.00 0.00 0.00 63 1006.5
20260502231800 20 5 4.8 12.9 0.00 0.00 0.00 64 1006.5
20260502231251 20 335 4.8 16.1 0.00 0.00 0.00 64 1006.5
20260502230752 20 335 4.8 16.1 0.00 0.00 0.00 64 1006.5
20260502230249 20 346 4.8 12.9 0.00 0.00 0.00 64 1006.5
20260502225749 20 313 4.8 14.5 0.00 0.00 0.00 65 1006.8